Regional Weather Roundup
Issued by NWS

Home | Current Version | Previous Version | Graphics & Text | Print | Product List | Glossary On
Versions: 1 2 3 4 5 6 7 8 9 10 11 12 13 14 15 16 17 18 19 20 21 22 23 24 25 26 27 28 29 30 31 32 33 34 35 36 37 38 39 40 41 42 43 44 45 46 47 48 49 50
000
ASUS43 KTOP 261108
RWRKS

WEATHER ROUNDUP FOR KANSAS
NATIONAL WEATHER SERVICE GOODLAND KS
600 AM CDT MON JUN 26 2017

NOTE:  "FAIR" INDICATES FEW OR NO CLOUDS BELOW 12,000 FEET WITH NO
SIGNIFICANT WEATHER AND/OR OBSTRUCTIONS TO VISIBILITY.

KSZ001>006-013>018-027>032-041>047-261200-
NORTHWEST KANSAS

CITY           SKY/WX    TMP DP  RH WIND       PRES   REMARKS
GOODLAND       CLOUDY    57  57 100 S10       30.24F FOG
HAYS           MOCLDY    59  56  89 CALM      30.23F
HILL CITY      CLOUDY    57  57 100 W5        30.23F
RUSSELL        CLOUDY    59  56  89 N6        30.22R
$$

KSZ061>065-074>080-084>089-261200-
SOUTHWEST KANSAS

CITY           SKY/WX    TMP DP  RH WIND       PRES   REMARKS
DODGE CITY     CLOUDY    56  55  97 E3        30.23F FOG
ELKHART          N/A     57  48  72 NW2         N/A
GARDEN CITY    FOG       57  56  96 NE3       30.24S VSB 1
GREAT BEND     CLOUDY    58  57  97 SE6       30.22F
LIBERAL        CLOUDY    60  59  96 E7        30.24R
PRATT          CLOUDY    59  51  73 SE3       30.23R
$$

KSZ066>073-081>083-090>101-261200-
SOUTHEAST KANSAS

CITY           SKY/WX    TMP DP  RH WIND       PRES   REMARKS
CHANUTE          N/A    N/A N/A N/A MISG      30.21F
COFFEYVILLE    CLOUDY    65  57  75 E7        30.21S
HUTCHINSON     CLOUDY    58  54  86 N5        30.23S
MEDICINE LODGE   N/A     58  53  84 NE3       30.21S
NEWTON         CLOUDY    59  55  87 E8        30.23S
PARSONS        MOCLDY    64  55  72 CALM      30.23R
WICHITA INTL   CLOUDY    63  55  75 E7        30.21S
WICHITA JABRA  CLOUDY    60  56  86 E6        30.21F
WICHITA MCCONL MOCLDY    63  54  72 E10       30.21F
WINFIELD       CLOUDY    66  53  63 E7        30.21S
$$

KSZ007>012-019>026-033>040-048>060-102>105-261200-
NORTHEAST KANSAS

CITY           SKY/WX    TMP DP  RH WIND       PRES   REMARKS
CONCORDIA      MOCLDY    57  54  89 W7        30.21S
EMPORIA        MOCLDY    61  57  87 S12       30.21F
LAWRENCE       PTCLDY    51  51 100 CALM      30.21R
MANHATTAN      CLOUDY    55  54  96 NE3       30.20S
MARYSVILLE     CLOUDY    54  52  94 CALM      30.21R
OLATHE IND     CLEAR     51  50  96 SE5       30.21F
OLATHE EXE       N/A     52  52 100 S3        30.20F
SALINA         CLOUDY    60  56  86 S5        30.21S
TOPEKA BILLARD MOCLDY    57  57 100 CALM      30.20R
TOPEKA FORBES  PTCLDY    56  55  97 S3        30.20R
$$




USA.gov is the U.S. government's official web portal to all federal, state and local government web resources and services.